Location: Unspecified
(43.4680°N, 87.1740°E)
Time: 20:45:10
(UTC+00:00)

ATLAS 5 CENTAUR R/B - Pass Details

Date: 17 April 2021
Orbit: 516 x 1141 km, 63.3° (Epoch: 02 May)

Event Time Altitude Azimuth Distance (km) Brightness Sun altitude
Rises 19:50:28 0° 327° (NNW) 3,204 5.6 -31.2°
Reaches altitude 10° 19:52:50 10° 335° (NNW) 2,372 4.9 -31.0°
Maximum altitude 19:58:06 42° 46° (NE) 1,260 3.4 -30.5°
Drops below altitude 10° 20:04:13 10° 116° (ESE) 2,770 4.9 -29.9°
Sets 20:07:10 0° 123° (ESE) 3,802 5.6 -29.6°
